Orbital Elements at Epoch 2459200.5 (2020-Dec-17.0) TDB
Reference: JPL 16 (heliocentric ecliptic J2000)
Element | Value | Uncertainty (1-sigma) | Units |
e | .1705002672252124 | 3.7541e-08 | |
a | 2.41175572537622 | 1.036e-08 | au |
q | 2.000550729717639 | 9.3297e-08 | au |
i | 1.819552379854565 | 5.1829e-06 | deg |
node | 135.6522751961801 | 0.0001185 | deg |
peri | 139.9191617865806 | 0.00011939 | deg |
M | 349.2130300415623 | 1.4335e-05 | deg |
tp | 2459241.491647421623 (2021-Jan-26.99164742) | 5.4528e-05 | TDB |
period | 1368.038766089382 3.75 | 8.8148e-06 2.413e-08 | d yr |
n | .2631504376364135 | 1.6956e-09 | deg/d |
Q | 2.822960721034801 | 1.2126e-08 | au |
|
| | Orbit Determination Parameters
Additional Information
|